Regional Weather Roundup
Issued by NWS Green Bay, WI

Home | Current Version | Previous Version | Text Only | Print | Product List | Glossary On
Versions: 1 2 3 4 5 6 7 8 9 10 11 12 13 14 15 16 17 18 19 20 21 22 23 24 25 26 27 28 29 30 31 32 33 34 35 36 37 38 39 40 41 42 43 44 45 46 47 48 49 50
000
ASUS43 KGRB 212100
RWRGRB

NORTH-CENTRAL AND NORTHEAST WISCONSIN REGIONAL WEATHER ROUNDUP
NATIONAL WEATHER SERVICE GREEN BAY WI
300 PM CST TUE FEB 21 2017

WIZ005-009-010>012-018-019-212200-
NORTH CENTRAL WISCONSIN

CITY           SKY/WX    TMP DP  RH WIND       PRES   REMARKS
IRONWOOD       SUNNY     55  29  36 SW8       29.75F
MANITOWISH WTR NOT AVBL
ARBOR VITAE    NOT AVBL
EAGLE RIVER    NOT AVBL
LAND O LAKES   SUNNY     55  26  32 SW8       29.81S
RHINELANDER    SUNNY     56  32  40 SW12      29.81F
PHILLIPS       PTSUNNY   52  32  46 S12       29.79F
ANTIGO         NOT AVBL
TOMAHAWK       NOT AVBL
MERRILL        NOT AVBL
$$

WIZ013-073-212200-
NORTHEAST WISCONSIN

CITY           SKY/WX    TMP DP  RH WIND       PRES   REMARKS
IRON MOUNTAIN  SUNNY     58  27  30 SW8       29.79F
MARINETTE      SUNNY     59  37  44 W8        29.84F
OCONTO         SUNNY     58  35  41 W8        29.85F
$$

WIZ017-030-035>037-045-212200-
CENTRAL WISCONSIN

CITY           SKY/WX    TMP DP  RH WIND       PRES   REMARKS
MEDFORD        NOT AVBL
WAUSAU         SUNNY     53  35  50 S7        29.83F
MOSINEE        MOSUNNY   54  39  58 S8        29.86F
MARSHFIELD     SUNNY     55  40  56 S9        29.83F
WISC RAPIDS    SUNNY     59  37  44 S7        29.86F
STEVENS POINT  NOT AVBL
WAUPACA        SUNNY     63  31  30 SW6       29.86F
SHAWANO        SUNNY     59  36  41 CALM      29.86F
CLINTONVILLE   SUNNY     57  34  41 S8        29.86F
WAUTOMA        SUNNY     62  36  37 S8        29.86F
$$

WIZ038-039-048-051-212200-
FOX VALLEY

CITY           SKY/WX    TMP DP  RH WIND       PRES   REMARKS
NWS GREEN BAY  SUNNY     58  42  55 S7        29.86F
APPLETON       MOSUNNY   57  36  44 SW7       29.86F
OSHKOSH        SUNNY     59  42  53 S7        29.87F
FOND DU LAC    SUNNY     59  40  49 SW5       29.88F
$$

WIZ022-050-052-212200-
EAST CENTRAL WISCONSIN

CITY           SKY/WX    TMP DP  RH WIND       PRES   REMARKS
EPHRAIM        NOT AVBL
WASHINGTON ISL FAIR      53  39  58 SW9       29.83S
STURGEON BAY   SUNNY     57  38  48 SW10      29.86F
MANITOWOC      NOT AVBL
SHEBOYGAN      SUNNY     61  36  39 NW5       29.88S
$$

LMZ563-521-522-541>543-212200-
LAKESHORE

STATION/POSITION TIME  TEMP    WIND        PRES    VSBY  WAVE
                       AIR SEA DIR/SP/G                  HT/PER
                 (UTC) (F)     (DEG/KT/KT) (MB)    (MI)  (FT/S)
SHEBOYGAN LKSHOR 2000   41     160/  5/  7 1012.3F
KEWAUNEE LKSHORE 2030   59     300/  5/  8 1011.1F
NORTHPORT PIER   2040   59     220/  3/  9 1010.2F
SISTER BAY LKSHO 2005   61     280/  7/  8   N/A
CHAMBERS ISLAND  2040   51     190/  6/ 16 1010.2F
MENOMINEE LKSHOR 2030   51     170/ 10/ 13 1009.9F
$$



USA.gov is the U.S. government's official web portal to all federal, state and local government web resources and services.